CDT,Max TemperatureF,Mean TemperatureF,Min TemperatureF,Max Dew PointF,MeanDew PointF,Min DewpointF,Max Humidity, Mean Humidity, Min Humidity, Max Sea Level PressureIn, Mean Sea Level PressureIn, Min Sea Level PressureIn, Max VisibilityMiles, Mean VisibilityMiles, Min VisibilityMiles, Max Wind SpeedMPH, Mean Wind SpeedMPH, Max Gust SpeedMPH,PrecipitationIn, CloudCover, Events, WindDirDegrees
2014-5-1,71,65,59,55,49,46,81,61,44,30.08,30.02,29.96,10,10,10,12,7,,0.00,4,,4
2014-5-2,79,70,60,56,50,46,83,56,31,30.02,29.97,29.91,10,10,9,10,2,,0.02,4,Rain,333
2014-5-3,82,68,55,53,47,41,78,49,24,30.08,30.03,29.97,10,10,10,14,3,18,0.00,1,,347
2014-5-4,91,73,55,59,52,45,84,54,21,30.14,30.08,30.02,10,10,10,6,1,,0.00,0,,325
2014-5-5,91,75,59,62,55,52,83,54,27,30.08,30.02,29.95,10,10,7,9,2,,0.00,0,,274
2014-5-6,90,75,60,62,56,51,83,52,28,30.04,29.99,29.94,10,10,6,7,2,,0.00,0,,256
2014-5-7,90,74,57,65,58,53,90,68,33,30.13,30.08,30.00,10,7,0,9,1,,0.00,2,Fog,222
2014-5-8,91,76,60,69,62,55,90,71,34,30.18,30.12,30.08,10,7,0,10,2,,0.01,3,Fog,168
2014-5-9,88,80,73,70,69,64,88,77,46,30.16,30.08,30.03,10,8,2,12,3,21,0.00,5,,189
2014-5-10,84,78,73,72,70,68,94,81,65,30.09,30.05,30.00,10,6,0,8,3,16,0.37,6,Rain,182
2014-5-11,91,83,73,72,70,64,89,78,42,30.15,30.08,30.03,10,5,1,10,3,,0.00,6,,159
2014-5-12,91,81,70,70,68,63,88,78,45,30.16,30.11,30.05,10,6,0,13,3,28,0.20,5,Fog-Rain-Thunderstorm,145
2014-5-13,91,78,66,69,65,61,87,66,36,30.11,30.06,30.01,10,8,2,9,2,,0.01,1,,167
2014-5-14,78,74,69,72,68,64,90,85,78,30.05,29.97,29.91,10,5,0,21,4,30,2.79,7,Fog-Rain-Thunderstorm,349
2014-5-15,72,64,55,66,55,45,88,73,41,30.14,30.03,29.95,10,8,0,18,9,29,0.02,6,Fog-Rain,345
2014-5-16,79,64,50,54,49,46,86,58,33,30.17,30.13,30.08,10,10,10,16,5,25,0.00,1,,323
2014-5-17,86,70,55,59,54,50,84,57,33,30.19,30.14,30.09,10,10,10,9,3,,0.00,0,,247
2014-5-18,88,74,59,62,57,51,86,58,28,30.19,30.15,30.11,10,10,6,7,1,,0.00,0,,318
2014-5-19,91,76,62,64,59,53,87,59,27,30.21,30.16,30.13,10,9,4,5,1,,0.00,1,,114
2014-5-20,91,77,63,65,60,57,87,59,32,30.23,30.18,30.14,10,9,4,6,1,,0.00,0,,179
2014-5-21,91,80,69,68,65,61,90,69,38,30.23,30.16,30.11,10,7,0,7,2,,0.00,3,Fog-Rain,269
2014-5-22,93,78,64,66,62,57,84,60,30,30.19,30.12,30.06,10,10,8,7,2,16,0.00,0,,318
2014-5-23,95,82,68,68,64,61,84,60,33,30.14,30.08,30.03,10,10,8,9,3,,0.00,0,,335
2014-5-24,93,82,71,70,66,61,81,61,33,30.12,30.06,30.03,10,10,9,5,1,,0.00,1,,310
2014-5-25,98,84,70,70,64,54,87,57,25,30.11,30.07,30.03,10,9,5,9,1,17,0.00,0,,150
2014-5-26,91,80,69,72,68,64,87,71,45,30.19,30.13,30.09,10,10,7,10,2,,0.01,1,Rain-Thunderstorm,140
2014-5-27,90,80,71,73,69,62,89,74,46,30.15,30.11,30.00,10,7,0,8,2,,0.00,5,Fog-Thunderstorm,148
2014-5-28,91,81,71,72,69,62,89,74,37,30.05,30.00,29.95,10,8,2,12,3,18,0.05,4,Rain,181
2014-5-29,75,73,71,70,68,66,88,84,78,30.06,29.99,29.96,10,9,5,8,2,,0.87,6,Rain-Thunderstorm,161
2014-5-30,88,80,71,70,68,66,88,77,53,30.04,30.01,29.97,10,10,9,10,3,21,0.10,6,Rain-Thunderstorm,144
2014-5-31,90,80,71,72,69,67,87,71,48,30.06,30.02,29.98,10,10,10,9,4,,0.00,2,,131